This demonstration page uses our WeatherBlox Daily Observations layout. Learn more.

Left ArrowRight Arrow

Hourly Observations for July 26, 2019

Temp ( °F °C ) Dew Point ( °F °C ) Humidity (%) Winds ( mph kmh ) Pressure ( in mb ) Visibility ( mi km ) Precip ( " mm )
12:53 am 00:53 Clear 61 16.1 60 15.6 97 97 N N/A 30.22 1023 10 16 N/A
1:53 am 01:53 Clear 60 15.6 59 15 96 96 N N/A 30.22 1024 10 16 N/A
2:53 am 02:53 Clear 60 15.6 59 15 96 96 N N/A 30.22 1023 10 16 N/A
3:53 am 03:53 Clear 59 15 59 15 100 100 N N/A 30.22 1023 10 16 N/A
4:53 am 04:53 Clear 58 14.4 57 13.9 97 97 N N/A 30.23 1024 10 16 N/A
5:53 am 05:53 Clear 59 15 58 14.4 96 96 N N/A 30.24 1024 10 16 N/A
6:53 am 06:53 Sunny 58 14.4 58 14.4 100 100 N N/A 30.25 1024 10 16 N/A
7:53 am 07:53 Sunny 64 17.8 61 16.1 90 90 N N/A 30.26 1025 10 16 N/A
8:53 am 08:53 Sunny 70 21.1 61 16.1 73 73 N N/A 30.27 1025 10 16 N/A
9:53 am 09:53 Sunny 74 23.3 62 16.7 67 67 N N/A 30.29 1026 10 16 N/A
10:53 am 10:53 Sunny 80 26.7 63 17.2 56 56 N N/A 30.28 1026 10 16 N/A
11:53 am 11:53 Partly Cloudy 80 26.7 61 16.1 52 52 N N/A 30.28 1025 10 16 N/A
12:53 pm 12:53 Sunny 82 27.8 61 16.1 49 49 VRB 5 7 30.27 1025 10 16 N/A
1:53 pm 13:53 Sunny 83 28.3 60 15.6 46 46 ENE 3 6 30.26 1025 10 16 N/A
2:53 pm 14:53 Mostly Cloudy 84 28.9 59 15 43 43 N N/A 30.24 1024 10 16 N/A
3:53 pm 15:53 Mostly Sunny 85 29.4 58 14.4 40 40 N N/A 30.23 1024 10 16 N/A
4:53 pm 16:53 Mostly Cloudy 82 27.8 61 16.1 49 49 N N/A 30.22 1023 10 16 N/A
5:53 pm 17:53 Mostly Sunny 84 28.9 61 16.1 46 46 N N/A 30.21 1023 10 16 N/A
6:53 pm 18:53 Mostly Sunny 81 27.2 66 18.9 61 61 W 3 6 30.20 1023 10 16 N/A
7:53 pm 19:53 Sunny 80 26.7 65 18.3 60 60 WSW 3 6 30.20 1023 10 16 N/A
8:53 pm 20:53 Sunny 71 21.7 66 18.9 84 84 N N/A 30.21 1023 10 16 N/A
9:53 pm 21:53 Clear 68 20 65 18.3 90 90 N N/A 30.22 1023 10 16 N/A
10:53 pm 22:53 Clear 67 19.4 65 18.3 93 93 N N/A 30.22 1023 10 16 N/A
11:53 pm 23:53 Clear 66 18.9 64 17.8 93 93 N N/A 30.22 1023 10 16 N/A

Powered by AerisWeather